#timestamp,LO_Frequency,Hit,StdDev 
1547863215.4,286046997.7,N
1547863235.3,286046991.0,N
1547863255.1,286046989.1,N
1547863256.0,286046989.1,N
1547863275.8,286046990.6,N
1547863295.7,286046992.7,N
1547863315.5,286046996.0,N
1547863335.3,286046994.2,N
1547863355.2,286046995.8,N
1547863405.0,286046991.4,E
1547863415.9,286046996.6,N
1547863435.7,286047001.9,P
1547863455.5,286046998.6,N
1547863475.4,286046997.0,N
1547863495.2,286047007.2,Y
1547863515.0,286047008.9,P
1547863515.9,286047008.9,N
1547863535.8,286047010.9,N
1547863555.6,286047013.5,N
1547863575.5,286047017.8,Y
1547863595.3,286047003.0,P
1547863615.1,286047005.8,N
1547863635.9,286047005.6,N
1547863655.7,286046999.4,N
1547863675.6,286047001.5,N
1547863695.4,286046993.6,N
1547863715.2,286046993.4,N
1547863735.1,286046998.0,N
1547863736.0,286046998.0,N
1547863755.8,286047000.4,N
1547863775.7,286047002.7,N
1547863795.5,286046998.8,N
1547863815.3,286046998.3,N
1547863835.2,286046997.5,N
1547863855.0,286046997.3,N
1547863855.9,286046997.3,N
1547863875.7,286046995.4,N
1547863895.6,286046997.0,N
1547863915.4,286046993.5,N
1547863935.3,286046999.0,N
1547863955.1,286047003.9,N
1547863956.0,286047003.9,N
1547863975.8,286046996.2,N
1547863995.7,286046994.7,N
1547864015.5,286046991.7,N
1547864035.4,286046986.1,Y
1547864055.2,286046990.6,P
1547864075.0,286046992.2,N
1547864075.9,286046992.2,N
1547864095.8,286046999.1,N
1547864115.6,286046998.3,N
1547864135.4,286047001.3,N
1547864155.3,286047000.2,N
1547864175.1,286047001.6,N
1547864195.9,286046996.6,N
1547864215.7,286047006.7,N
1547864235.5,286047012.6,N
1547864255.4,286047007.7,N
1547864275.2,286047008.9,N
1547864295.1,286047016.4,N
1547864296.0,286047016.4,N
1547864315.8,286047021.1,N
1547864335.6,286047016.6,N
1547864355.5,286047022.0,N
1547864375.3,286047014.7,N
1547864395.1,286047013.3,N
1547864415.9,286047016.5,N
1547864435.7,286047014.7,N
1547864455.6,286047014.1,N
1547864475.4,286047012.8,N
1547864495.2,286047014.2,N
1547864515.1,286047014.1,N
1547864516.0,286047014.1,N
1547864535.8,286047017.9,N
1547864555.7,286047019.2,N
1547864575.5,286047015.4,N
1547864595.3,286047014.6,N
1547864615.2,286047009.1,N
1547864635.0,286047006.2,N
1547864635.9,286047006.2,N
1547864655.8,286047007.9,N
1547864675.6,286047009.9,N
1547864695.5,286047015.4,N
1547864715.3,286047014.7,N
1547864735.1,286047017.4,Y
1547864755.9,286047011.8,P
1547864775.7,286047011.7,P
1547864795.5,286047008.3,P
1547864815.4,286047003.3,N
1547864835.2,286046999.5,N
1547864855.1,286047003.2,N
1547864856.0,286047003.2,N
1547864875.8,286047009.0,N
1547864895.6,286047006.4,N
1547864915.5,286047000.6,N
1547864935.3,286047003.0,N
1547864955.1,286046994.3,N
1547864975.9,286046993.6,N
1547864995.7,286046997.4,N
1547865015.6,286046993.6,N
1547865035.4,286046995.6,N
1547865055.2,286046989.5,N
1547865075.1,286046985.7,N
1547865076.0,286046985.7,N
1547865095.8,286046988.8,N
1547865115.6,286046993.0,N
1547865135.5,286046993.2,N
1547865155.3,286046992.2,N
1547865175.2,286046989.1,N
1547865195.9,286046991.0,N
1547865215.7,286046983.6,N
1547865235.6,286046982.5,N
1547865255.4,286046981.6,N
1547865275.2,286046980.4,N
1547865295.1,286046985.0,N
1547865296.0,286046985.0,N
1547865315.8,286046991.8,N
1547865335.7,286046994.0,N
1547865355.5,286046989.0,N
1547865375.3,286046989.8,N
1547865395.2,286046984.2,N
1547865415.0,286046978.5,N
1547865415.9,286046978.5,N
1547865435.8,286046967.2,Y
1547865455.6,286046981.6,P
1547865475.4,286046983.5,P
1547865495.3,286046977.5,P
1547865515.1,286046976.5,Y
1547865535.8,286046987.9,P
1547865555.7,286046985.5,P
1547865575.5,286046981.6,P
1547865595.4,286046976.1,Y
1547865615.2,286046996.0,P
1547865635.0,286046994.5,N
1547865635.9,286046994.5,N
1547865655.8,286047000.2,N
1547865675.6,286047002.5,N
1547865695.5,286046998.0,N
1547865715.3,286046996.2,N
1547865735.1,286047001.1,N
1547865755.9,286047002.4,N
1547865775.7,286046995.0,N
1547865795.6,286046995.8,N
1547865815.4,286046997.1,N
1547865835.2,286047007.2,N
1547865855.1,286047004.4,N
1547865856.0,286047004.4,N
1547865875.8,286047000.7,N
1547865895.6,286047012.5,N
1547865915.5,286047013.2,N
1547865935.3,286047011.4,N
1547865955.2,286047003.6,N
1547865975.9,286047015.9,N
1547865995.7,286047019.8,N
1547866015.6,286047022.1,N
1547866035.4,286047026.4,N
1547866055.2,286047028.2,N
1547866075.1,286047019.6,N
1547866076.0,286047019.6,N
1547866095.8,286047020.9,N
1547866115.7,286047013.9,N
1547866135.5,286047016.1,N
1547866155.3,286047016.8,N
1547866175.2,286047014.1,N
1547866195.0,286047017.0,N
1547866195.9,286047017.0,N
1547866215.8,286047019.5,N
1547866235.6,286047022.7,N
1547866255.4,286047012.5,N
1547866275.3,286047006.9,N
1547866295.1,286047006.4,N
1547866315.8,286047008.5,N
1547866335.7,286047012.3,N
1547866355.5,286047010.8,N
1547866375.4,286047006.7,N
1547866395.2,286047008.5,N
1547866415.0,286047002.8,N
1547866415.9,286047002.8,N
1547866435.8,286046997.7,N
1547866455.6,286047001.7,N
1547866475.5,286047002.4,N
1547866495.3,286047008.6,N
1547866515.1,286047007.4,N
1547866535.9,286047006.6,N
1547866555.7,286047005.6,N
1547866575.5,286047001.3,N
1547866595.4,286046999.2,N
1547866615.2,286047002.2,N
1547866635.1,286047005.0,N
1547866636.0,286047005.0,N
1547866655.8,286047004.3,N
1547866675.7,286047005.9,N
1547866695.5,286047002.0,N
1547866715.3,286046997.4,N
1547866735.2,286046999.4,N
1547866755.0,286047002.2,N
1547866755.9,286047002.2,N
1547866775.8,286047010.7,N
1547866795.6,286047005.9,N
